User: anonymous   Login
Location: Arran
(51.9410°N, 101.7372°W)
Time: 17:47:41
(UTC+00:00)
Language:

COSMOS 2251 DEB - Orbit

View from above orbital plane
View from above orbital plane
View from above satellite
View from above satellite

Ground track
Ground track

The orbit data is extracted from the following two-line orbital elements,

1 35061U 93036AHQ 24148.43077517  .00004144  00000-0  85377-3 0  9995
2 35061  74.0485 309.5217 0046365 206.5200 153.3594 14.60144660804139
Epoch (UTC): 27 May 2024 10:20:18
Eccentricity: 0.0046365
inclination: 74.0485°
perigee height: 660 km
apogee height: 725 km
right ascension of ascending node: 309.5217°
argument of perigee: 206.5200°
revolutions per day: 14.60144660
mean anomaly at epoch: 153.3594°
orbit number at epoch: 80413

The dashed part of the orbit path shows where the satellite is in the earth's shadow,  

DLR